Location: Zagreb
(45.8000°N, 16.0000°E)
Time: 02:09:50
(UTC+01:00)

SR - All Passes

Search period start: 23 January 2022 00:00
Search period end: 02 February 2022 00:00
Orbit: 582 x 872 km, 66.7° (Epoch: 22 January)

Date Brightness Start Highest point End Pass type
(mag) Time Alt. Az. Time Alt. Az. Time Alt. Az.
23 Jan - 11:09:09 10° SSW 11:13:25 88° WNW 11:17:43 10° NNE daylight
23 Jan - 12:53:39 10° WNW 12:56:06 15° NW 12:58:35 10° N daylight
23 Jan - 18:05:24 10° N 18:08:53 21° NE 18:12:32 10° E visible
23 Jan - 19:46:39 10° NW 19:51:18 71° WSW 19:56:22 10° SSE visible
24 Jan - 10:19:36 10° S 10:23:38 42° ESE 10:27:39 10° NE daylight
24 Jan - 12:02:15 10° W 12:05:47 25° NW 12:09:21 10° NNE daylight
24 Jan - 17:16:20 10° N 17:18:29 13° NE 17:20:42 10° ENE visible
24 Jan - 18:56:47 10° NNW 19:01:24 60° NE 19:06:23 10° SE visible
24 Jan - 20:39:39 10° WNW 20:43:04 20° WSW 20:46:40 10° SSW visible
25 Jan - 09:30:53 10° SSE 09:33:59 20° ESE 09:37:05 10° ENE daylight
25 Jan - 11:11:33 10° SW 11:15:39 46° NW 11:19:48 10° NNE daylight
25 Jan - 18:07:08 10° NNW 18:11:20 33° NE 18:15:50 10° ESE visible
25 Jan - 19:49:01 10° NW 19:53:24 38° WSW 19:58:07 10° S visible
26 Jan - 10:21:27 10° SSW 10:25:43 85° ESE 10:29:59 10° NE daylight
26 Jan - 12:05:43 10° WNW 12:08:19 16° NW 12:10:58 10° N daylight
26 Jan - 17:17:43 10° N 17:21:07 20° NE 17:24:41 10° E visible
26 Jan - 18:58:54 10° NW 19:03:36 76° WSW 19:08:42 10° SSE visible
26 Jan - 20:44:24 10° W 20:44:56 10° WSW 20:45:29 10° WSW visible
27 Jan - 09:31:58 10° S 09:35:56 38° ESE 09:39:53 10° NE daylight
27 Jan - 11:14:24 10° WSW 11:18:01 26° NW 11:21:41 10° NNE daylight
27 Jan - 16:28:43 10° N 16:30:43 12° NNE 16:32:44 10° ENE daylight
27 Jan - 18:09:04 10° NNW 18:13:40 56° NE 18:18:39 10° SE visible
27 Jan - 19:51:46 10° WNW 19:55:23 21° WSW 19:59:12 10° SSW visible
28 Jan - 08:43:23 10° SSE 08:46:18 18° ESE 08:49:13 10° ENE daylight
28 Jan - 10:23:46 10° SW 10:27:54 50° NW 10:32:05 10° NNE daylight
28 Jan - 12:10:20 10° NW 12:11:00 10° NNW 12:11:41 10° NNW daylight
28 Jan - 17:19:26 10° NNW 17:23:36 31° NE 17:28:03 10° ESE visible
28 Jan - 19:01:14 10° NW 19:05:42 41° WSW 19:10:31 10° S visible
29 Jan - 09:33:44 10° SSW 09:37:58 78° ESE 09:42:15 10° NE daylight
29 Jan - 11:17:46 10° W 11:20:32 17° NW 11:23:20 10° N daylight
29 Jan - 16:30:02 10° N 16:33:21 19° NE 16:36:49 10° E daylight
29 Jan - 18:11:09 10° NW 18:15:53 82° WSW 18:21:01 10° SSE visible
29 Jan - 19:55:45 10° W 19:57:16 11° WSW 19:58:48 10° WSW visible
30 Jan - 08:44:20 10° S 08:48:12 35° ESE 08:52:06 10° NE daylight
30 Jan - 10:26:34 10° WSW 10:30:15 28° NW 10:34:00 10° NNE daylight
30 Jan - 15:41:07 10° N 15:42:55 12° NNE 15:44:45 10° NE daylight
30 Jan - 17:21:20 10° NNW 17:25:56 53° NE 17:30:55 10° SE visible
30 Jan - 19:03:55 10° WNW 19:07:42 23° WSW 19:11:43 10° SSW visible
31 Jan - 07:55:53 10° SSE 07:58:37 17° ESE 08:01:20 10° ENE daylight
31 Jan - 09:36:00 10° SW 09:40:09 54° NW 09:44:23 10° NNE daylight
31 Jan - 11:22:02 10° NW 11:23:12 11° NNW 11:24:22 10° NNW daylight
31 Jan - 16:31:44 10° NNW 16:35:50 30° NE 16:40:14 10° ESE daylight
31 Jan - 18:13:27 10° NW 18:17:59 45° WSW 18:22:55 10° S visible
01 Feb - 08:46:00 10° SSW 08:50:14 72° ESE 08:54:31 10° NE daylight
01 Feb - 10:29:51 10° W 10:32:45 18° NW 10:35:42 10° N daylight
01 Feb - 15:42:21 10° N 15:45:35 18° NE 15:48:57 10° E daylight
01 Feb - 17:23:24 10° NNW 17:28:10 88° WSW 17:33:20 10° SSE visible
01 Feb - 19:07:32 10° W 19:09:35 12° WSW 19:11:41 10° SW visible
